User: anonymous   Login
Location: Unspecified
(0.0000°N, 0.0000°E)
Time: 19:06:35
(UTC+00:00)
Language:

CLOUDSAT - Orbit

View from above orbital plane
View from above orbital plane
View from above satellite
View from above satellite

Ground track
Ground track

The orbit data is extracted from the following two-line orbital elements,

1 29107U 06016A   17113.90877600 +.00000114 +00000-0 +35409-4 0  9993
2 29107 098.1990 058.7066 0000936 115.9355 244.1940 14.57102051584362
Epoch (UTC): 23 April 2017 21:48:38
Eccentricity: 0.0000936
inclination: 98.1990°
perigee height: 702 km
apogee height: 703 km
right ascension of ascending node: 58.7066°
argument of perigee: 115.9355°
revolutions per day: 14.57102051
mean anomaly at epoch: 244.1940°
orbit number at epoch: 58436

The dashed part of the orbit path shows where the satellite is in the earth's shadow,  

DLR